Location: Sobotiste
(48.7170°N, 17.4000°E)
Time: 02:04:42
(UTC+02:00)

Envisat - Visible Passes

Search period start: 20 October 2018 00:00
Search period end: 29 October 2018 23:00
Orbit: 764 x 766 km, 98.2° (Epoch: 19 October)

Date Brightness Start Highest point End Pass type
(mag) Time Alt. Az. Time Alt. Az. Time Alt. Az.
20 Oct 3.8 18:38:39 10° ESE 18:43:00 30° ENE 18:47:23 10° N visible
20 Oct 4.1 20:17:03 10° S 20:21:52 43° W 20:26:44 10° NNW visible
21 Oct 2.9 19:39:57 10° SSE 19:45:01 88° WSW 19:50:09 10° NNW visible
21 Oct 5.9 21:22:30 10° WSW 21:24:49 13° W 21:27:07 10° WNW visible
22 Oct 3.2 19:03:32 10° SE 19:08:23 47° ENE 19:13:15 10° N visible
22 Oct 5.0 20:43:22 10° SSW 20:47:36 26° W 20:51:54 10° NW visible
23 Oct 4.0 18:27:51 10° ESE 18:31:55 25° ENE 18:36:00 10° N visible
23 Oct 3.7 20:05:41 10° S 20:10:38 53° W 20:15:38 10° NNW visible
24 Oct 2.9 19:28:47 10° SSE 19:33:51 76° ENE 19:38:57 10° N visible
24 Oct 5.6 21:10:21 10° SW 21:13:28 16° W 21:16:36 10° NW visible
25 Oct 3.5 18:52:35 10° SE 18:57:15 38° ENE 19:01:57 10° N visible
25 Oct 4.6 20:31:48 10° SSW 20:36:20 32° W 20:40:55 10° NNW visible
26 Oct 4.2 18:17:08 10° ESE 18:20:51 21° ENE 18:24:35 10° NNE visible
26 Oct 3.3 19:54:23 10° S 19:59:25 66° WSW 20:04:30 10° NNW visible
27 Oct 2.9 19:17:41 10° SSE 19:22:41 62° ENE 19:27:43 10° N visible
27 Oct 5.4 20:58:28 10° SW 21:02:08 20° W 21:05:51 10° NW visible
28 Oct 3.7 17:41:41 10° SE 17:46:09 32° ENE 17:50:38 10° N visible
28 Oct 4.2 19:20:20 10° SSW 19:25:05 40° W 19:29:52 10° NNW visible
29 Oct 4.4 17:06:31 10° E 17:09:48 18° ENE 17:13:05 10° NNE visible
29 Oct 3.0 18:43:08 10° SSE 18:48:13 81° WSW 18:53:20 10° NNW visible
29 Oct 5.9 20:26:13 10° WSW 20:28:03 12° W 20:29:54 10° WNW visible
